Regional Weather Roundup
Issued by NWS New Orleans/Baton Rouge, LA

Home | Current Version | Previous Version | Text Only | Print | Product List | Glossary Off
Versions: 1 2 3 4 5 6 7 8 9 10 11 12 13 14 15 16 17 18 19 20 21 22 23 24 25 26 27 28 29 30 31 32 33 34 35 36 37 38 39 40 41 42 43 44 45 46 47 48 49 50

270
ASUS44 KLIX 241310
RWRLIX
NEW ORLEANS REGIONAL WEATHER ROUNDUP
NATIONAL WEATHER SERVICE NEW ORLEANS LA
800 AM CDT FRI OCT 24 2014

NOTE: "FAIR" INDICATES FEW OR NO CLOUDS BELOW 12,000 FEET WITH NO
      SIGNIFICANT WEATHER AND/OR OBSTRUCTIONS TO VISIBILITY.
      SKY/WX - SKY CONDITION AND SIGNIFICANT WEATHER.
      TMP - AIR TEMPERATURE.     DP    - DEWPOINT TEMPERATURE.
      RH  - RELATIVE HUMIDITY.   PRES  - PRESSURE.
      HI  - HEAT INDEX.          WCI   - WIND CHILL INDEX.

*  THESE STATIONS ARE NOT NWS OR FAA STATIONS AND ARE NOT UNDER
   NWS QUALITY CONTROL.

LAZ038-040-048-061>063-065>067-069-241400-
SOUTHEAST LOUISIANA

CITY           SKY/WX    TMP DP  RH WIND       PRES   REMARKS
N.O. AUDUBON     N/A     59  53  79 MISG        N/A
N.O. INTL ARPT PTCLDY    60  52  74 NE8       30.10R
N.O. LAKEFRONT CLEAR     63  52  67 E9        30.10R
N.O. DOWNTOWN*   N/A     61  46  59 NE6       30.10S
SLIDELL        CLEAR     50  46  86 N3        30.10R
BATON ROUGE    CLEAR     50  48  93 CALM      30.12S
BOOTHVILLE     SUNNY     67  57  70 N6        30.08R
BELLE CHASSE   PTCLDY    54  50  86 CALM      30.10R
BOGALUSA*        N/A     47  45  91 CALM      30.13R
NEW ROADS*       N/A     48  47  96 CALM      30.13S
GONZALES*        N/A     51  51 100 N3        30.12R
HAMMOND*       CLEAR     50  48  93 CALM      30.13S
HOUMA*         NOT AVBL
PORT FOURCHON* SUNNY     64  57  77 NE7       30.12S

$$

MSZ070-080>082-241400-
SOUTHERN MISSISSIPPI

CITY           SKY/WX    TMP DP  RH WIND       PRES   REMARKS
MCCOMB         CLEAR     50  47  89 N3        30.12R
GULFPORT       SUNNY     53  48  83 CALM      30.09R
BILOXI         SUNNY     54  48  79 NE5       30.09R
PASCAGOULA     SUNNY     50  48  93 CALM      30.09S
STENNIS ARPT*  SUNNY     48  46  93 CALM      30.10R

$$

COASTAL OBSERVATIONS
LAKE AND NEARSHORE STATIONS

STATION/POSITION TIME  TEMP    WIND        PRES    WAVE
                       AIR SEA DIR/SP/G            HT/PER
                 (UTC) (F)     (DEG/KT/KT) (MB)    (FT/S)
PASCAGOULA       1300   55      10/  6/ 10 1018.2
WAVELAND YACHT   1300   57      10/  6/  7 1018.2
GRAND ISLE       1300   65 73   50/  7/ 12 1019.1
SOUTHWEST PASS   1300   73 81              1018.6
NEW CANAL        1300   59 69  140/  2/  4 1019.6
SHELL BEACH      1300   63 66   40/ 11/ 13 1018.7

OFFSHORE STATIONS

STATION/POSITION TIME  TEMP    WIND        PRES    WAVE
                       AIR SEA DIR/SP/G            HT/PER
                 (UTC) (F)     (DEG/KT/KT) (MB)    (FT/S)
64 S DAUPHIN ISL 1244   71 78   10/ 14/ 17 1018.2    3/ 6

$$




USA.gov is the U.S. government's official web portal to all federal, state and local government web resources and services.